Regional Weather Roundup
Issued by NWS

Home | Current Version | Previous Version | Graphics & Text | Print | Product List | Glossary On
Versions: 1 2 3 4 5 6 7 8 9 10 11 12 13 14 15 16 17 18 19 20 21 22 23 24 25 26 27 28 29 30 31 32 33 34 35 36 37 38 39 40 41 42 43 44 45 46 47 48 49 50
791
ASUS45 KSLC 071010
RWRUT

UTAH REGIONAL WEATHER ROUNDUP
NATIONAL WEATHER SERVICE SALT LAKE CITY UT
300 AM MST WED DEC 07 2016

UTZ001>011-023>025-071100-

NORTHERN UTAH

CITY           SKY/WX    TMP DP  RH WIND       PRES   REMARKS
BRIGHAM CITY     N/A     22  11  63 NW7       30.09R WCI  14
HILL AFB       CLOUDY    21  11  65 N8        30.05R WCI  11
LOGAN          CLOUDY    20  14  77 N10       30.08R WCI   9
OGDEN          CLOUDY    22  12  65 N6        30.06R WCI  14
SALT LAKE CITY CLOUDY    24  17  74 N10       30.07R WCI  14
TOOELE VALLEY  CLOUDY    25  16  68 N3        30.08R
WENDOVER       CLOUDY    27   7  43 CALM      30.10R
HEBER CITY     FLURRIES  16   9  73 CALM      29.98R
WEST JORDAN    CLOUDY    22  20  96 N10       30.08R WCI  11

$$

UTZ011>015-024>027-071100-

CENTRAL/NORTHEAST UTAH

CITY           SKY/WX    TMP DP  RH WIND       PRES   REMARKS
PROVO AIRPORT  MOCLDY    25  16  68 W6        30.07R WCI  18
MOAB/CANYONLAN MOCLDY    29   4  34 NW14      29.97R WCI  18
DELTA          CLOUDY    21  10  63 NE3       30.06R
PRICE          CLEAR     16   4  59 N5        29.96R WCI   9
ROOSEVELT      PTCLDY    19   1  45 W13       29.99R WCI   7
VERNAL         CLEAR     14   2  58 W6        29.96R WCI   5

$$

UTZ013>016-019>022-027-071100-

SOUTHERN UTAH

CITY           SKY/WX    TMP DP  RH WIND       PRES   REMARKS
BRYCE CANYON   NOT AVBL
CEDAR CITY     CLEAR     17  10  74 SE5       29.99R WCI  10
MILFORD        CLEAR     14   5  67 NW5       30.03R WCI   6
ST GEORGE      PTSUNNY   34  10  37 S7        30.03R WCI  28
HANKSVILLE     CLEAR     23  10  58 CALM      30.03R
BLANDING       PTCLDY    27  10  50 NW17G25   29.99R WCI  14

$$

REGIONAL REPORTS     COLORADO/ARIZONA

CITY           SKY/WX    TMP DP  RH WIND       PRES   REMARKS
CRAIG, CO      FLURRIES  14   9  80 CALM      29.93R
GRAND JUNCTION CLOUDY    23  21  92 SW6       29.97R WCI  16
RIFLE, CO      CLOUDY    23  19  85 W14       29.94R WCI  11
MONTROSE, CO   LGT SNOW  24  23  96 S7        29.97R FOG     WCI  16
CORTEZ, CO     CLOUDY    28  17  63 N9        29.93R WCI  19
COLORADO CITY    N/A     27  18  69 SE3       29.99R
PAGE, AZ       PTCLDY    38   8  29 NW7       29.95R WCI  33
GRAND CANYON   CLOUDY    33  32  96 SW8       29.95R WCI  26
KINGMAN, AZ    PTCLDY    39  27  62 SE8       29.94R WCI  33
FLAGSTAFF, AZ  CLOUDY    32  29  88 SW14      29.94R WCI  22

$$

REGIONAL REPORTS    NEVADA/IDAHO/WYOMING

CITY           SKY/WX    TMP DP  RH WIND       PRES   REMARKS
LAS VEGAS, NV  MOCLDY    48  10  21 NE14      29.98R
ELY, NY        PTCLDY     4   0  83 S9        30.03R WCI -10
ELKO, NV       CLOUDY    19  12  74 E3        30.10R
POCATELLO, ID  FLURRIES  18  14  84 W9        30.10R WCI   7
BURLEY, ID     CLOUDY    19  14  81 W13       30.12R WCI   6
FORT BRIDGER,  MOSUNNY    9   3  78 W13       29.93R WCI  -7
EVANSTON, WY   CLOUDY     8   1  73 CALM      29.91R
ROCK SPRINGS,  LGT SNOW   6   3  87 E8        29.92R FOG     WCI  -7

$$




USA.gov is the U.S. government's official web portal to all federal, state and local government web resources and services.